Location: Wellington
(41.3000°S, 174.7830°E)
Time: 16:26:05
(UTC+13:00)

MOS 1 - Pass Details

Date: 24 January 2019
Orbit: 878 x 892 km, 99.2° (Epoch: 15 February)

Event Time Altitude Azimuth Distance (km) Brightness Sun altitude
Rises 21:10:45 0° 164° (SSE) 3,541 7.6 -4.4°
Reaches altitude 10° 21:13:11 10° 162° (SSE) 2,594 6.9 -4.8°
Maximum altitude 21:18:59 74° 76° (ENE) 937 4.3 -5.7°
Drops below altitude 10° 21:24:41 10° 351° (N) 2,559 6.5 -6.6°
Sets 21:27:05 0° 349° (N) 3,490 7.2 -7.0°
